Flag for Israel Weather past 2 weeks in Netanya, Israel

Now
84 °F

Passing clouds.


Feels Like: 91 °F
Forecast: 79 / 87 °F
Wind: 6 mph from Southwest

Location: Dov Airport

Current Time: Aug 28, 2015 at 11:08:29 AM

Latest Report: Aug 28, 2015 at 9:50 AM


Visibility: N/A

Pressure: 29.89 "Hg

Humidity: 70%

Dew point: 73 °F

Location of NetanyaLocation

Historic Weather in Netanya — Graph

°F

Netanya temperature yesterday

Maximum temperature yesterday: 88 °F (at 10:50 AM)
Minimum temperature yesterday: 79 °F (at 4:50 AM)
Average temperature yesterday: 85 °F

Past Weeks' High & Low Weather Summary

 TemperatureHumidityPressure
High91 °F (Aug 17, 1:50 PM)89% (Aug 17, 5:50 AM)29.89 "Hg (Aug 17, 5:50 AM)
Low77 °F (Aug 26, 4:50 AM)49% (Aug 25, 12:50 PM)29.68 "Hg (Aug 16, 6:50 PM)
Average85 °F68%29.77 "Hg
* Reported Aug 13 9:50 AM — Aug 28 9:50 AM, Netanya, Weather by CustomWeather, © 2015

Note: Actual official high and low records may vary slightly from our data, if they occured in-between our weather recording intervals... More about our weather records

Advertising

Netanya weather history for previous 24 hours

 ConditionsComfort  
Time TempWeatherWind HumidityBarometerVisibility
9:50 AM
Fri, Aug 28
84 °FPassing clouds.6 mph70%29.89 "HgN/A
8:50 AM84 °FScattered clouds.2 mph70%29.86 "HgN/A
7:50 AM82 °FPassing clouds.1 mph70%29.86 "HgN/A
6:50 AM79 °FPassing clouds.2 mph79%29.83 "HgN/A
5:50 AM79 °FPassing clouds.3 mph79%29.83 "HgN/A
4:50 AM79 °FPassing clouds.3 mph79%29.83 "HgN/A
3:50 AM79 °FPassing clouds.2 mph79%29.83 "HgN/A
11:50 PM
Thu, Aug 27
82 °FPassing clouds.7 mph74%29.86 "HgN/A
10:50 PM84 °FPassing clouds.7 mph70%29.86 "HgN/A
9:50 PM84 °FPassing clouds.7 mph70%29.86 "HgN/A
8:50 PM84 °FPassing clouds.8 mph70%29.83 "HgN/A
7:50 PM84 °FPassing clouds.9 mph70%29.83 "HgN/A
6:50 PM86 °FPassing clouds.10 mph70%29.80 "HgN/A
5:50 PM86 °FSunny.12 mph66%29.80 "Hg10 mi
4:50 PM88 °FPassing clouds.13 mph66%29.80 "HgN/A
3:50 PM88 °FPassing clouds.14 mph62%29.80 "HgN/A
2:50 PM88 °FSunny.13 mph66%29.80 "Hg10 mi
1:50 PM88 °FSunny.12 mph62%29.83 "Hg10 mi
12:50 PM88 °FPassing clouds.12 mph62%29.83 "HgN/A
11:50 AM88 °FPassing clouds.10 mph66%29.83 "HgN/A
Weather by CustomWeather, © 2015

See weather overviewHow to use our weather pages